Weather History for Ord, NE

Change the Weather History Date:

Monday, September 16, 2013

  Actual Average Record
Temperature  
Mean Temperature 60 °F 64 °F  
Max Temperature 64 °F 78 °F 90 °F (2000)
Min Temperature 56 °F 49 °F 38 °F (2014)
Degree Days  
Heating Degree Days 5 4  
Month to date heating degree days 11 33  
Since 1 July heating degree days 18 47  
Cooling Degree Days 0 2  
Month to date cooling degree days 121 63  
Year to date cooling degree days 881 820  
Growing Degree Days 9 (Base 50)    
Moisture  
Dew Point 51 °F    
Average Humidity 77    
Maximum Humidity 93    
Minimum Humidity 60    
Precipitation  
Precipitation 0.00 in 0.09 in 3.60 in (1906)
Month to date precipitation 0.20 1.41  
Year to date precipitation 19.63 20.32  
Sea Level Pressure  
Sea Level Pressure 30.23 in    
Wind  
Wind Speed 8 mph (SE)    
Max Wind Speed 15 mph    
Max Gust Speed 18 mph    
Visibility 9 miles    
Events      
T = Trace of Precipitation, MM = Missing Value Source: NWS Daily Summary

Daily Weather History Graph

Daily Weather History Graph

Search for Another Location

Airport:

Trip Planner

Search our weather history database for the weather conditions in past years. The results will help you decide how hot, cold, wet, or windy it might be!

Date:

Astronomy

Sep. 16, 2013 Rise Set
Actual Time 7:17 AM CDT 7:42 PM CDT
Civil Twilight 6:49 AM CDT 8:10 PM CDT
Nautical Twilight 6:16 AM CDT 8:43 PM CDT
Astronomical Twilight 5:43 AM CDT 9:16 PM CDT
Moon 5:54 PM CDT (9/16) 4:03 AM CDT (9/16)
Length of Visible Light 13h 21m
Length of Day
12h 25m
Waxing Gibbous, 90% of the Moon is Illuminated
Sep 16
Waxing Gibbous
Sep 19
Full
Sep 26
Last Quarter
Oct 4
New
Oct 11
First Quarter

Hourly Weather History & Observations

Time (CDT) Temp. Dew Point Humidity Pressure Visibility Wind Dir Wind Speed Gust Speed Precip Events Conditions
12:53 AM 57.9 °F 51.1 °F 78% 30.29 in 10.0 mi NE 5.8 mph - N/A   Overcast
1:03 AM 57.2 °F 50.0 °F 77% 30.29 in 10.0 mi NE 5.8 mph - N/A   Overcast
1:53 AM 57.9 °F 50.0 °F 75% 30.28 in 10.0 mi NE 5.8 mph - N/A   Overcast
2:53 AM 57.0 °F 51.1 °F 81% 30.27 in 10.0 mi ENE 5.8 mph - N/A   Overcast
3:53 AM 57.0 °F 52.0 °F 83% 30.27 in 10.0 mi ENE 3.5 mph - N/A   Overcast
4:53 AM 57.0 °F 52.0 °F 83% 30.27 in 10.0 mi Calm Calm - N/A   Overcast
5:53 AM 57.0 °F 52.0 °F 83% 30.28 in 10.0 mi Calm Calm - N/A   Overcast
6:53 AM 57.0 °F 51.1 °F 81% 30.29 in 10.0 mi East 5.8 mph - N/A   Overcast
7:53 AM 57.0 °F 51.1 °F 81% 30.31 in 10.0 mi ESE 5.8 mph - N/A   Overcast
8:53 AM 57.0 °F 50.0 °F 77% 30.31 in 10.0 mi ESE 5.8 mph - N/A   Overcast
9:53 AM 57.0 °F 50.0 °F 77% 30.32 in 10.0 mi ESE 10.4 mph - N/A   Overcast
10:53 AM 59.0 °F 48.9 °F 69% 30.32 in 10.0 mi SE 8.1 mph - N/A   Overcast
11:53 AM 60.1 °F 48.9 °F 67% 30.30 in 10.0 mi SE 8.1 mph - N/A   Overcast
12:53 PM 61.0 °F 48.0 °F 62% 30.29 in 10.0 mi ESE 8.1 mph - N/A   Overcast
1:33 PM 62.6 °F 48.2 °F 59% 30.27 in 10.0 mi East 6.9 mph - N/A   Overcast
1:44 PM 62.6 °F 48.2 °F 59% 30.26 in 10.0 mi East 9.2 mph - N/A   Overcast
1:53 PM 62.1 °F 48.9 °F 62% 30.26 in 10.0 mi East 10.4 mph - N/A   Overcast
2:53 PM 63.0 °F 50.0 °F 63% 30.23 in 10.0 mi SE 6.9 mph - N/A   Mostly Cloudy
3:53 PM 63.0 °F 50.0 °F 63% 30.21 in 10.0 mi SE 6.9 mph - N/A   Overcast
4:53 PM 63.0 °F 50.0 °F 63% 30.19 in 10.0 mi SE 11.5 mph - N/A   Overcast
5:53 PM 62.1 °F 51.1 °F 67% 30.18 in 10.0 mi SSE 9.2 mph - N/A   Overcast
6:29 PM 60.8 °F 51.8 °F 72% 30.18 in 10.0 mi South 11.5 mph - N/A   Overcast
6:53 PM 60.1 °F 52.0 °F 75% 30.17 in 10.0 mi SSE 9.2 mph - N/A   Overcast
7:53 PM 59.0 °F 52.0 °F 78% 30.17 in 10.0 mi SSE 8.1 mph - N/A   Overcast
8:53 PM 57.9 °F 52.0 °F 81% 30.16 in 10.0 mi SSE 9.2 mph - N/A   Overcast
9:01 PM 57.2 °F 51.8 °F 82% 30.16 in 10.0 mi SSE 10.4 mph - N/A   Overcast
9:16 PM 57.2 °F 53.6 °F 88% 30.16 in 10.0 mi SSE 13.8 mph - N/A   Overcast
9:24 PM 57.2 °F 53.6 °F 88% 30.16 in 10.0 mi SSE 12.7 mph - N/A   Overcast
9:31 PM 57.2 °F 53.6 °F 88% 30.16 in 10.0 mi SSE 12.7 mph - N/A   Overcast
9:46 PM 57.2 °F 53.6 °F 88% 30.16 in 10.0 mi SSE 11.5 mph - N/A   Overcast
9:53 PM 57.0 °F 53.1 °F 87% 30.16 in 10.0 mi SSE 11.5 mph - N/A   Overcast
10:32 PM 55.4 °F 53.6 °F 94% 30.15 in 8.0 mi SSE 12.7 mph 17.3 mph N/A   Overcast
10:53 PM 55.9 °F 54.0 °F 93% 30.16 in 3.0 mi SSE 10.4 mph - N/A   Overcast
11:04 PM 55.4 °F 53.6 °F 94% 30.16 in 2.5 mi SSE 10.4 mph - N/A   Overcast
11:25 PM 55.4 °F 53.6 °F 94% 30.16 in 3.0 mi South 12.7 mph 18.4 mph N/A   Overcast
11:53 PM 55.9 °F 54.0 °F 93% 30.16 in 6.0 mi SSE 11.5 mph - N/A   Overcast